Location: SE Lincoln, NE
(40.7805°N, 96.6275°W)
Time: 03:51:51
(UTC-05:00)

SPOT 1/Viking Rocket - Pass Details

Date: 15 May 2021
Orbit: 776 x 794 km, 98.4° (Epoch: 23 June)

Event Time Altitude Azimuth Distance (km) Brightness Sun altitude
Exits shadow 22:41:34 31° 175° (S) 1,370 4.4 -19.3°
Maximum altitude 22:44:10 78° 257° (WSW) 809 3.6 -19.7°
Drops below altitude 10° 22:49:22 10° 344° (NNW) 2,354 7.0 -20.3°
Sets 22:51:42 0° 346° (NNW) 3,284 7.9 -20.6°
